owner,sensor,date,latitude,longitude,air_temperature,qcFlag 
DISL,ioos:station:DISL:PPTA:1,2015-12-01T00:00:00Z,30.2791,-87.5561,21.55,1111122 
DISL,ioos:station:DISL:PPTA:1,2015-12-01T00:30:00Z,30.2791,-87.5561,21.29,1111122 
DISL,ioos:station:DISL:PPTA:1,2015-12-01T01:00:00Z,30.2791,-87.5561,21.29,1111122 
DISL,ioos:station:DISL:PPTA:1,2015-12-01T01:30:00Z,30.2791,-87.5561,21.26,1111122 
DISL,ioos:station:DISL:PPTA:1,2015-12-01T02:00:00Z,30.2791,-87.5561,21.23,1111122 
DISL,ioos:station:DISL:PPTA:1,2015-12-01T02:30:00Z,30.2791,-87.5561,21.3,1111122 
DISL,ioos:station:DISL:PPTA:1,2015-12-01T03:00:00Z,30.2791,-87.5561,21.16,1111122 
DISL,ioos:station:DISL:PPTA:1,2015-12-01T03:30:00Z,30.2791,-87.5561,21.02,1111122 
DISL,ioos:station:DISL:PPTA:1,2015-12-01T04:00:00Z,30.2791,-87.5561,20.68,1111122 
DISL,ioos:station:DISL:PPTA:1,2015-12-01T04:30:00Z,30.2791,-87.5561,20.2,1111122 
DISL,ioos:station:DISL:PPTA:1,2015-12-01T05:00:00Z,30.2791,-87.5561,20.34,1111122 
DISL,ioos:station:DISL:PPTA:1,2015-12-01T05:30:00Z,30.2791,-87.5561,21.16,1111122 
DISL,ioos:station:DISL:PPTA:1,2015-12-01T06:00:00Z,30.2791,-87.5561,21.26,1111122 
DISL,ioos:station:DISL:PPTA:1,2015-12-01T06:30:00Z,30.2791,-87.5561,21.37,1111122 
DISL,ioos:station:DISL:PPTA:1,2015-12-01T07:00:00Z,30.2791,-87.5561,21.5,1111122 
DISL,ioos:station:DISL:PPTA:1,2015-12-01T07:30:00Z,30.2791,-87.5561,21.43,1111122 
DISL,ioos:station:DISL:PPTA:1,2015-12-01T08:00:00Z,30.2791,-87.5561,21.43,1111122 
DISL,ioos:station:DISL:PPTA:1,2015-12-01T08:30:00Z,30.2791,-87.5561,21.4,1111122 
DISL,ioos:station:DISL:PPTA:1,2015-12-01T09:00:00Z,30.2791,-87.5561,21.33,1111122 
DISL,ioos:station:DISL:PPTA:1,2015-12-01T09:30:00Z,30.2791,-87.5561,21.3,1111122 
DISL,ioos:station:DISL:PPTA:1,2015-12-01T10:00:00Z,30.2791,-87.5561,21.02,1111122 
DISL,ioos:station:DISL:PPTA:1,2015-12-01T10:30:00Z,30.2791,-87.5561,21.13,1111122 
DISL,ioos:station:DISL:PPTA:1,2015-12-01T11:00:00Z,30.2791,-87.5561,20.31,1111122 
DISL,ioos:station:DISL:PPTA:1,2015-12-01T11:30:00Z,30.2791,-87.5561,19.59,1111122 
DISL,ioos:station:DISL:PPTA:1,2015-12-01T12:00:00Z,30.2791,-87.5561,19.56,1111122 
DISL,ioos:station:DISL:PPTA:1,2015-12-01T12:30:00Z,30.2791,-87.5561,19.49,1111122 
DISL,ioos:station:DISL:PPTA:1,2015-12-01T13:00:00Z,30.2791,-87.5561,19.28,1111122 
DISL,ioos:station:DISL:PPTA:1,2015-12-01T13:30:00Z,30.2791,-87.5561,19.32,1111122 
DISL,ioos:station:DISL:PPTA:1,2015-12-01T14:00:00Z,30.2791,-87.5561,19.76,1111122 
DISL,ioos:station:DISL:PPTA:1,2015-12-01T14:30:00Z,30.2791,-87.5561,20.03,1111122 
DISL,ioos:station:DISL:PPTA:1,2015-12-01T15:00:00Z,30.2791,-87.5561,20.34,1111122 
DISL,ioos:station:DISL:PPTA:1,2015-12-01T15:30:00Z,30.2791,-87.5561,20.74,1111122 
DISL,ioos:station:DISL:PPTA:1,2015-12-01T16:00:00Z,30.2791,-87.5561,22.23,1111122 
DISL,ioos:station:DISL:PPTA:1,2015-12-01T16:30:00Z,30.2791,-87.5561,22.6,1111122 
DISL,ioos:station:DISL:PPTA:1,2015-12-01T17:00:00Z,30.2791,-87.5561,23.1,1111122 
DISL,ioos:station:DISL:PPTA:1,2015-12-01T17:30:00Z,30.2791,-87.5561,23.37,1111122 
DISL,ioos:station:DISL:PPTA:1,2015-12-01T18:00:00Z,30.2791,-87.5561,24.06,1111122 
DISL,ioos:station:DISL:PPTA:1,2015-12-01T18:30:00Z,30.2791,-87.5561,23.55,1111122 
DISL,ioos:station:DISL:PPTA:1,2015-12-01T19:00:00Z,30.2791,-87.5561,24.1,1111122 
DISL,ioos:station:DISL:PPTA:1,2015-12-01T19:30:00Z,30.2791,-87.5561,24.03,1111122 
DISL,ioos:station:DISL:PPTA:1,2015-12-01T20:00:00Z,30.2791,-87.5561,23.45,1111122 
DISL,ioos:station:DISL:PPTA:1,2015-12-01T20:30:00Z,30.2791,-87.5561,23.43,1111122 
DISL,ioos:station:DISL:PPTA:1,2015-12-01T21:00:00Z,30.2791,-87.5561,23.44,1111122 
DISL,ioos:station:DISL:PPTA:1,2015-12-01T21:30:00Z,30.2791,-87.5561,23.3,1111122 
DISL,ioos:station:DISL:PPTA:1,2015-12-01T22:00:00Z,30.2791,-87.5561,23.27,1111122 
DISL,ioos:station:DISL:PPTA:1,2015-12-01T22:30:00Z,30.2791,-87.5561,22.41,1111122 
DISL,ioos:station:DISL:PPTA:1,2015-12-01T23:00:00Z,30.2791,-87.5561,22.12,1111122 
DISL,ioos:station:DISL:PPTA:1,2015-12-01T23:30:00Z,30.2791,-87.5561,22.06,1111122 
DISL,ioos:station:DISL:PPTA:1,2015-12-02T00:00:00Z,30.2791,-87.5561,21.82,1111122 
DISL,ioos:station:DISL:PPTA:1,2015-12-02T00:30:00Z,30.2791,-87.5561,21.72,1111122 
DISL,ioos:station:DISL:PPTA:1,2015-12-02T01:00:00Z,30.2791,-87.5561,21.69,1111122 
DISL,ioos:station:DISL:PPTA:1,2015-12-02T01:30:00Z,30.2791,-87.5561,21.66,1111122 
DISL,ioos:station:DISL:PPTA:1,2015-12-02T02:00:00Z,30.2791,-87.5561,21.6,1111122 
DISL,ioos:station:DISL:PPTA:1,2015-12-02T02:30:00Z,30.2791,-87.5561,21.59,1111122 
DISL,ioos:station:DISL:PPTA:1,2015-12-02T03:00:00Z,30.2791,-87.5561,21.49,1111122 
DISL,ioos:station:DISL:PPTA:1,2015-12-02T03:30:00Z,30.2791,-87.5561,21.56,1111122 
DISL,ioos:station:DISL:PPTA:1,2015-12-02T04:00:00Z,30.2791,-87.5561,21.5,1111122 
DISL,ioos:station:DISL:PPTA:1,2015-12-02T04:30:00Z,30.2791,-87.5561,21.53,1111122 
DISL,ioos:station:DISL:PPTA:1,2015-12-02T05:00:00Z,30.2791,-87.5561,21.32,1111122 
DISL,ioos:station:DISL:PPTA:1,2015-12-02T05:30:00Z,30.2791,-87.5561,21.49,1111122 
DISL,ioos:station:DISL:PPTA:1,2015-12-02T06:00:00Z,30.2791,-87.5561,21.22,1111122 
DISL,ioos:station:DISL:PPTA:1,2015-12-02T06:30:00Z,30.2791,-87.5561,20.91,1111122 
DISL,ioos:station:DISL:PPTA:1,2015-12-02T07:00:00Z,30.2791,-87.5561,20.98,1111122 
DISL,ioos:station:DISL:PPTA:1,2015-12-02T07:30:00Z,30.2791,-87.5561,21.12,1111122 
DISL,ioos:station:DISL:PPTA:1,2015-12-02T08:00:00Z,30.2791,-87.5561,21.16,1111122 
DISL,ioos:station:DISL:PPTA:1,2015-12-02T08:30:00Z,30.2791,-87.5561,21.26,1111122 
DISL,ioos:station:DISL:PPTA:1,2015-12-02T09:00:00Z,30.2791,-87.5561,21.22,1111122 
DISL,ioos:station:DISL:PPTA:1,2015-12-02T09:30:00Z,30.2791,-87.5561,21.15,1111122 
DISL,ioos:station:DISL:PPTA:1,2015-12-02T10:00:00Z,30.2791,-87.5561,20.91,1111122 
DISL,ioos:station:DISL:PPTA:1,2015-12-02T10:30:00Z,30.2791,-87.5561,20.68,1111122 
DISL,ioos:station:DISL:PPTA:1,2015-12-02T11:00:00Z,30.2791,-87.5561,20.34,1111122 
DISL,ioos:station:DISL:PPTA:1,2015-12-02T11:30:00Z,30.2791,-87.5561,19.97,1111122 
DISL,ioos:station:DISL:PPTA:1,2015-12-02T12:00:00Z,30.2791,-87.5561,19.9,1111122 
DISL,ioos:station:DISL:PPTA:1,2015-12-02T12:30:00Z,30.2791,-87.5561,19.66,1111122 
DISL,ioos:station:DISL:PPTA:1,2015-12-02T13:00:00Z,30.2791,-87.5561,18.33,1111122 
DISL,ioos:station:DISL:PPTA:1,2015-12-02T13:30:00Z,30.2791,-87.5561,17.0,1111122 
DISL,ioos:station:DISL:PPTA:1,2015-12-02T14:00:00Z,30.2791,-87.5561,16.5,1111122 
DISL,ioos:station:DISL:PPTA:1,2015-12-02T14:30:00Z,30.2791,-87.5561,16.13,1111122 
DISL,ioos:station:DISL:PPTA:1,2015-12-02T15:00:00Z,30.2791,-87.5561,16.51,1111122 
DISL,ioos:station:DISL:PPTA:1,2015-12-02T15:30:00Z,30.2791,-87.5561,16.34,1111122 
DISL,ioos:station:DISL:PPTA:1,2015-12-02T16:00:00Z,30.2791,-87.5561,16.21,1111122 
DISL,ioos:station:DISL:PPTA:1,2015-12-02T16:30:00Z,30.2791,-87.5561,16.18,1111122 
DISL,ioos:station:DISL:PPTA:1,2015-12-02T17:00:00Z,30.2791,-87.5561,16.32,1111122 
DISL,ioos:station:DISL:PPTA:1,2015-12-02T17:30:00Z,30.2791,-87.5561,16.72,1111122 
DISL,ioos:station:DISL:PPTA:1,2015-12-02T18:00:00Z,30.2791,-87.5561,17.03,1111122 
DISL,ioos:station:DISL:PPTA:1,2015-12-02T18:30:00Z,30.2791,-87.5561,17.57,1111122 
DISL,ioos:station:DISL:PPTA:1,2015-12-02T19:00:00Z,30.2791,-87.5561,17.6,1111122 
DISL,ioos:station:DISL:PPTA:1,2015-12-02T19:30:00Z,30.2791,-87.5561,17.49,1111122 
DISL,ioos:station:DISL:PPTA:1,2015-12-02T20:00:00Z,30.2791,-87.5561,17.19,1111122 
DISL,ioos:station:DISL:PPTA:1,2015-12-02T20:30:00Z,30.2791,-87.5561,16.61,1111122 
DISL,ioos:station:DISL:PPTA:1,2015-12-02T21:00:00Z,30.2791,-87.5561,16.31,1111122 
DISL,ioos:station:DISL:PPTA:1,2015-12-02T21:30:00Z,30.2791,-87.5561,16.08,1111122 
DISL,ioos:station:DISL:PPTA:1,2015-12-02T22:00:00Z,30.2791,-87.5561,15.87,1111122 
DISL,ioos:station:DISL:PPTA:1,2015-12-02T22:30:00Z,30.2791,-87.5561,15.7,1111122 
DISL,ioos:station:DISL:PPTA:1,2015-12-02T23:00:00Z,30.2791,-87.5561,15.57,1111122 
DISL,ioos:station:DISL:PPTA:1,2015-12-02T23:30:00Z,30.2791,-87.5561,15.09,1111122 
DISL,ioos:station:DISL:PPTA:1,2015-12-03T00:00:00Z,30.2791,-87.5561,14.95,1111122 
DISL,ioos:station:DISL:PPTA:1,2015-12-03T00:30:00Z,30.2791,-87.5561,14.55,1111122 
DISL,ioos:station:DISL:PPTA:1,2015-12-03T01:00:00Z,30.2791,-87.5561,14.45,1111122 
DISL,ioos:station:DISL:PPTA:1,2015-12-03T01:30:00Z,30.2791,-87.5561,14.28,1111122 
DISL,ioos:station:DISL:PPTA:1,2015-12-03T02:00:00Z,30.2791,-87.5561,14.25,1111122 
DISL,ioos:station:DISL:PPTA:1,2015-12-03T02:30:00Z,30.2791,-87.5561,13.88,1111122 
DISL,ioos:station:DISL:PPTA:1,2015-12-03T03:00:00Z,30.2791,-87.5561,13.71,1111122 
DISL,ioos:station:DISL:PPTA:1,2015-12-03T03:30:00Z,30.2791,-87.5561,13.54,1111122 
DISL,ioos:station:DISL:PPTA:1,2015-12-03T04:00:00Z,30.2791,-87.5561,13.33,1111122 
DISL,ioos:station:DISL:PPTA:1,2015-12-03T04:30:00Z,30.2791,-87.5561,12.79,1111122 
DISL,ioos:station:DISL:PPTA:1,2015-12-03T05:00:00Z,30.2791,-87.5561,12.49,1111122 
DISL,ioos:station:DISL:PPTA:1,2015-12-03T05:30:00Z,30.2791,-87.5561,12.18,1111122 
DISL,ioos:station:DISL:PPTA:1,2015-12-03T06:00:00Z,30.2791,-87.5561,11.91,1111122 
DISL,ioos:station:DISL:PPTA:1,2015-12-03T06:30:00Z,30.2791,-87.5561,11.78,1111122 
DISL,ioos:station:DISL:PPTA:1,2015-12-03T07:00:00Z,30.2791,-87.5561,11.4,1111122 
DISL,ioos:station:DISL:PPTA:1,2015-12-03T07:30:00Z,30.2791,-87.5561,11.44,1111122 
DISL,ioos:station:DISL:PPTA:1,2015-12-03T08:00:00Z,30.2791,-87.5561,11.55,1111122 
DISL,ioos:station:DISL:PPTA:1,2015-12-03T08:30:00Z,30.2791,-87.5561,11.27,1111122 
DISL,ioos:station:DISL:PPTA:1,2015-12-03T09:00:00Z,30.2791,-87.5561,10.9,1111122 
DISL,ioos:station:DISL:PPTA:1,2015-12-03T09:30:00Z,30.2791,-87.5561,10.83,1111122 
DISL,ioos:station:DISL:PPTA:1,2015-12-03T10:00:00Z,30.2791,-87.5561,10.49,1111122 
DISL,ioos:station:DISL:PPTA:1,2015-12-03T10:30:00Z,30.2791,-87.5561,10.28,1111122 
DISL,ioos:station:DISL:PPTA:1,2015-12-03T11:00:00Z,30.2791,-87.5561,9.95,1111122 
DISL,ioos:station:DISL:PPTA:1,2015-12-03T11:30:00Z,30.2791,-87.5561,9.88,1111122 
DISL,ioos:station:DISL:PPTA:1,2015-12-03T12:00:00Z,30.2791,-87.5561,9.68,1111122 
DISL,ioos:station:DISL:PPTA:1,2015-12-03T12:30:00Z,30.2791,-87.5561,9.34,1111122 
DISL,ioos:station:DISL:PPTA:1,2015-12-03T13:00:00Z,30.2791,-87.5561,9.27,1111122 
DISL,ioos:station:DISL:PPTA:1,2015-12-03T13:30:00Z,30.2791,-87.5561,9.07,1111122 
DISL,ioos:station:DISL:PPTA:1,2015-12-03T14:00:00Z,30.2791,-87.5561,8.86,1111122 
DISL,ioos:station:DISL:PPTA:1,2015-12-03T14:30:00Z,30.2791,-87.5561,8.83,1111122 
DISL,ioos:station:DISL:PPTA:1,2015-12-03T15:00:00Z,30.2791,-87.5561,8.94,1111122 
DISL,ioos:station:DISL:PPTA:1,2015-12-03T15:30:00Z,30.2791,-87.5561,9.31,1111122 
DISL,ioos:station:DISL:PPTA:1,2015-12-03T16:00:00Z,30.2791,-87.5561,9.34,1111122 
DISL,ioos:station:DISL:PPTA:1,2015-12-03T16:30:00Z,30.2791,-87.5561,9.79,1111122 
DISL,ioos:station:DISL:PPTA:1,2015-12-03T17:00:00Z,30.2791,-87.5561,9.79,1111122 
DISL,ioos:station:DISL:PPTA:1,2015-12-03T17:30:00Z,30.2791,-87.5561,10.02,1111122 
DISL,ioos:station:DISL:PPTA:1,2015-12-03T18:00:00Z,30.2791,-87.5561,10.29,1111122 
DISL,ioos:station:DISL:PPTA:1,2015-12-03T18:30:00Z,30.2791,-87.5561,10.29,1111122 
DISL,ioos:station:DISL:PPTA:1,2015-12-03T19:00:00Z,30.2791,-87.5561,10.6,1111122 
DISL,ioos:station:DISL:PPTA:1,2015-12-03T19:30:00Z,30.2791,-87.5561,10.9,1111122 
DISL,ioos:station:DISL:PPTA:1,2015-12-03T20:00:00Z,30.2791,-87.5561,10.8,1111122 
DISL,ioos:station:DISL:PPTA:1,2015-12-03T20:30:00Z,30.2791,-87.5561,10.8,1111122 
DISL,ioos:station:DISL:PPTA:1,2015-12-03T21:00:00Z,30.2791,-87.5561,10.66,1111122 
DISL,ioos:station:DISL:PPTA:1,2015-12-03T21:30:00Z,30.2791,-87.5561,10.63,1111122 
DISL,ioos:station:DISL:PPTA:1,2015-12-03T22:00:00Z,30.2791,-87.5561,10.02,1111122 
DISL,ioos:station:DISL:PPTA:1,2015-12-03T22:30:00Z,30.2791,-87.5561,9.44,1111122 
DISL,ioos:station:DISL:PPTA:1,2015-12-03T23:00:00Z,30.2791,-87.5561,9.37,1111122 
DISL,ioos:station:DISL:PPTA:1,2015-12-03T23:30:00Z,30.2791,-87.5561,9.2,1111122 
DISL,ioos:station:DISL:PPTA:1,2015-12-04T00:00:00Z,30.2791,-87.5561,9.07,1111122 
DISL,ioos:station:DISL:PPTA:1,2015-12-04T00:30:00Z,30.2791,-87.5561,9.14,1111122 
DISL,ioos:station:DISL:PPTA:1,2015-12-04T01:00:00Z,30.2791,-87.5561,8.94,1111122 
DISL,ioos:station:DISL:PPTA:1,2015-12-04T01:30:00Z,30.2791,-87.5561,8.77,1111122 
DISL,ioos:station:DISL:PPTA:1,2015-12-04T02:00:00Z,30.2791,-87.5561,8.97,1111122 
DISL,ioos:station:DISL:PPTA:1,2015-12-04T02:30:00Z,30.2791,-87.5561,8.63,1111122 
DISL,ioos:station:DISL:PPTA:1,2015-12-04T03:00:00Z,30.2791,-87.5561,8.53,1111122 
DISL,ioos:station:DISL:PPTA:1,2015-12-04T03:30:00Z,30.2791,-87.5561,8.29,1111122 
DISL,ioos:station:DISL:PPTA:1,2015-12-04T04:00:00Z,30.2791,-87.5561,8.19,1111122 
DISL,ioos:station:DISL:PPTA:1,2015-12-04T04:30:00Z,30.2791,-87.5561,7.679,1111122 
DISL,ioos:station:DISL:PPTA:1,2015-12-04T05:00:00Z,30.2791,-87.5561,7.443,1111122 
DISL,ioos:station:DISL:PPTA:1,2015-12-04T05:30:00Z,30.2791,-87.5561,7.033,1111122 
DISL,ioos:station:DISL:PPTA:1,2015-12-04T06:00:00Z,30.2791,-87.5561,6.52,1111122 
DISL,ioos:station:DISL:PPTA:1,2015-12-04T06:30:00Z,30.2791,-87.5561,6.253,1111122 
DISL,ioos:station:DISL:PPTA:1,2015-12-04T07:00:00Z,30.2791,-87.5561,5.882,1111122 
DISL,ioos:station:DISL:PPTA:1,2015-12-04T07:30:00Z,30.2791,-87.5561,5.748,1111122 
DISL,ioos:station:DISL:PPTA:1,2015-12-04T08:00:00Z,30.2791,-87.5561,5.544,1111122 
DISL,ioos:station:DISL:PPTA:1,2015-12-04T08:30:00Z,30.2791,-87.5561,5.271,1111122 
DISL,ioos:station:DISL:PPTA:1,2015-12-04T09:00:00Z,30.2791,-87.5561,5.408,1111122 
DISL,ioos:station:DISL:PPTA:1,2015-12-04T09:30:00Z,30.2791,-87.5561,5.787,1111122 
DISL,ioos:station:DISL:PPTA:1,2015-12-04T10:00:00Z,30.2791,-87.5561,5.579,1111122 
DISL,ioos:station:DISL:PPTA:1,2015-12-04T10:30:00Z,30.2791,-87.5561,5.099,1111122 
DISL,ioos:station:DISL:PPTA:1,2015-12-04T11:00:00Z,30.2791,-87.5561,4.898,1111122 
DISL,ioos:station:DISL:PPTA:1,2015-12-04T11:30:00Z,30.2791,-87.5561,5.038,1111122 
DISL,ioos:station:DISL:PPTA:1,2015-12-04T12:00:00Z,30.2791,-87.5561,4.593,1111122 
DISL,ioos:station:DISL:PPTA:1,2015-12-04T12:30:00Z,30.2791,-87.5561,4.695,1111122 
DISL,ioos:station:DISL:PPTA:1,2015-12-04T13:00:00Z,30.2791,-87.5561,4.901,1111122 
DISL,ioos:station:DISL:PPTA:1,2015-12-04T13:30:00Z,30.2791,-87.5561,5.346,1111122 
DISL,ioos:station:DISL:PPTA:1,2015-12-04T14:00:00Z,30.2791,-87.5561,6.468,1111122 
DISL,ioos:station:DISL:PPTA:1,2015-12-04T14:30:00Z,30.2791,-87.5561,7.653,1111122 
DISL,ioos:station:DISL:PPTA:1,2015-12-04T15:00:00Z,30.2791,-87.5561,8.77,1111122 
DISL,ioos:station:DISL:PPTA:1,2015-12-04T15:30:00Z,30.2791,-87.5561,9.2,1111122 
DISL,ioos:station:DISL:PPTA:1,2015-12-04T16:00:00Z,30.2791,-87.5561,10.25,1111122 
DISL,ioos:station:DISL:PPTA:1,2015-12-04T16:30:00Z,30.2791,-87.5561,11.06,1111122 
DISL,ioos:station:DISL:PPTA:1,2015-12-04T17:00:00Z,30.2791,-87.5561,12.28,1111122 
DISL,ioos:station:DISL:PPTA:1,2015-12-04T17:30:00Z,30.2791,-87.5561,13.2,1111122 
DISL,ioos:station:DISL:PPTA:1,2015-12-04T18:00:00Z,30.2791,-87.5561,13.84,1111122 
DISL,ioos:station:DISL:PPTA:1,2015-12-04T18:30:00Z,30.2791,-87.5561,14.58,1111122 
DISL,ioos:station:DISL:PPTA:1,2015-12-04T19:00:00Z,30.2791,-87.5561,14.85,1111122 
DISL,ioos:station:DISL:PPTA:1,2015-12-04T19:30:00Z,30.2791,-87.5561,15.7,1111122 
DISL,ioos:station:DISL:PPTA:1,2015-12-04T20:00:00Z,30.2791,-87.5561,16.6,1111122 
DISL,ioos:station:DISL:PPTA:1,2015-12-04T20:30:00Z,30.2791,-87.5561,16.98,1111122 
DISL,ioos:station:DISL:PPTA:1,2015-12-04T21:00:00Z,30.2791,-87.5561,16.91,1111122 
DISL,ioos:station:DISL:PPTA:1,2015-12-04T21:30:00Z,30.2791,-87.5561,16.57,1111122 
DISL,ioos:station:DISL:PPTA:1,2015-12-04T22:00:00Z,30.2791,-87.5561,16.46,1111122 
DISL,ioos:station:DISL:PPTA:1,2015-12-04T22:30:00Z,30.2791,-87.5561,15.78,1111122 
DISL,ioos:station:DISL:PPTA:1,2015-12-04T23:00:00Z,30.2791,-87.5561,14.49,1111122 
DISL,ioos:station:DISL:PPTA:1,2015-12-04T23:30:00Z,30.2791,-87.5561,13.37,1111122 
DISL,ioos:station:DISL:PPTA:1,2015-12-05T00:00:00Z,30.2791,-87.5561,13.2,1111122 
DISL,ioos:station:DISL:PPTA:1,2015-12-05T00:30:00Z,30.2791,-87.5561,12.76,1111122 
DISL,ioos:station:DISL:PPTA:1,2015-12-05T01:00:00Z,30.2791,-87.5561,12.25,1111122 
DISL,ioos:station:DISL:PPTA:1,2015-12-05T01:30:00Z,30.2791,-87.5561,11.61,1111122 
DISL,ioos:station:DISL:PPTA:1,2015-12-05T02:00:00Z,30.2791,-87.5561,11.31,1111122 
DISL,ioos:station:DISL:PPTA:1,2015-12-05T02:30:00Z,30.2791,-87.5561,11.24,1111122 
DISL,ioos:station:DISL:PPTA:1,2015-12-05T03:00:00Z,30.2791,-87.5561,11.14,1111122 
DISL,ioos:station:DISL:PPTA:1,2015-12-05T03:30:00Z,30.2791,-87.5561,10.8,1111122 
DISL,ioos:station:DISL:PPTA:1,2015-12-05T04:00:00Z,30.2791,-87.5561,11.04,1111122 
DISL,ioos:station:DISL:PPTA:1,2015-12-05T04:30:00Z,30.2791,-87.5561,11.18,1111122 
DISL,ioos:station:DISL:PPTA:1,2015-12-05T05:00:00Z,30.2791,-87.5561,11.21,1111122 
DISL,ioos:station:DISL:PPTA:1,2015-12-05T05:30:00Z,30.2791,-87.5561,11.45,1111122 
DISL,ioos:station:DISL:PPTA:1,2015-12-05T06:00:00Z,30.2791,-87.5561,11.18,1111122 
DISL,ioos:station:DISL:PPTA:1,2015-12-05T06:30:00Z,30.2791,-87.5561,10.67,1111122 
DISL,ioos:station:DISL:PPTA:1,2015-12-05T07:00:00Z,30.2791,-87.5561,10.32,1111122 
DISL,ioos:station:DISL:PPTA:1,2015-12-05T07:30:00Z,30.2791,-87.5561,9.78,1111122 
DISL,ioos:station:DISL:PPTA:1,2015-12-05T08:00:00Z,30.2791,-87.5561,9.68,1111122 
DISL,ioos:station:DISL:PPTA:1,2015-12-05T08:30:00Z,30.2791,-87.5561,9.55,1111122 
DISL,ioos:station:DISL:PPTA:1,2015-12-05T09:00:00Z,30.2791,-87.5561,10.17,1111122 
DISL,ioos:station:DISL:PPTA:1,2015-12-05T09:30:00Z,30.2791,-87.5561,11.26,1111122 
DISL,ioos:station:DISL:PPTA:1,2015-12-05T10:00:00Z,30.2791,-87.5561,11.22,1111122 
DISL,ioos:station:DISL:PPTA:1,2015-12-05T10:30:00Z,30.2791,-87.5561,10.84,1111122 
DISL,ioos:station:DISL:PPTA:1,2015-12-05T11:00:00Z,30.2791,-87.5561,9.26,1111122 
DISL,ioos:station:DISL:PPTA:1,2015-12-05T11:30:00Z,30.2791,-87.5561,8.9,1111122 
DISL,ioos:station:DISL:PPTA:1,2015-12-05T12:00:00Z,30.2791,-87.5561,8.8,1111122 
DISL,ioos:station:DISL:PPTA:1,2015-12-05T12:30:00Z,30.2791,-87.5561,8.6,1111122 
DISL,ioos:station:DISL:PPTA:1,2015-12-05T13:00:00Z,30.2791,-87.5561,8.73,1111122 
DISL,ioos:station:DISL:PPTA:1,2015-12-05T13:30:00Z,30.2791,-87.5561,8.63,1111122 
DISL,ioos:station:DISL:PPTA:1,2015-12-05T14:00:00Z,30.2791,-87.5561,9.45,1111122 
DISL,ioos:station:DISL:PPTA:1,2015-12-05T14:30:00Z,30.2791,-87.5561,10.2,1111122 
DISL,ioos:station:DISL:PPTA:1,2015-12-05T15:00:00Z,30.2791,-87.5561,10.56,1111122 
DISL,ioos:station:DISL:PPTA:1,2015-12-05T15:30:00Z,30.2791,-87.5561,11.23,1111122 
DISL,ioos:station:DISL:PPTA:1,2015-12-05T16:00:00Z,30.2791,-87.5561,11.77,1111122 
DISL,ioos:station:DISL:PPTA:1,2015-12-05T16:30:00Z,30.2791,-87.5561,12.9,1111122 
DISL,ioos:station:DISL:PPTA:1,2015-12-05T17:00:00Z,30.2791,-87.5561,13.63,1111122 
DISL,ioos:station:DISL:PPTA:1,2015-12-05T17:30:00Z,30.2791,-87.5561,14.89,1111122 
DISL,ioos:station:DISL:PPTA:1,2015-12-05T18:00:00Z,30.2791,-87.5561,16.25,1111122 
DISL,ioos:station:DISL:PPTA:1,2015-12-05T18:30:00Z,30.2791,-87.5561,17.13,1111122 
DISL,ioos:station:DISL:PPTA:1,2015-12-05T19:00:00Z,30.2791,-87.5561,18.04,1111122 
DISL,ioos:station:DISL:PPTA:1,2015-12-05T19:30:00Z,30.2791,-87.5561,18.72,1111122 
DISL,ioos:station:DISL:PPTA:1,2015-12-05T20:00:00Z,30.2791,-87.5561,18.04,1111122 
DISL,ioos:station:DISL:PPTA:1,2015-12-05T20:30:00Z,30.2791,-87.5561,18.83,1111122 
DISL,ioos:station:DISL:PPTA:1,2015-12-05T21:00:00Z,30.2791,-87.5561,19.61,1111122 
DISL,ioos:station:DISL:PPTA:1,2015-12-05T21:30:00Z,30.2791,-87.5561,19.88,1111122 
DISL,ioos:station:DISL:PPTA:1,2015-12-05T22:00:00Z,30.2791,-87.5561,19.51,1111122 
DISL,ioos:station:DISL:PPTA:1,2015-12-05T22:30:00Z,30.2791,-87.5561,19.13,1111122 
DISL,ioos:station:DISL:PPTA:1,2015-12-05T23:00:00Z,30.2791,-87.5561,18.52,1111122 
DISL,ioos:station:DISL:PPTA:1,2015-12-05T23:30:00Z,30.2791,-87.5561,17.63,1111122 
DISL,ioos:station:DISL:PPTA:1,2015-12-06T00:00:00Z,30.2791,-87.5561,17.3,1111122 
DISL,ioos:station:DISL:PPTA:1,2015-12-06T00:30:00Z,30.2791,-87.5561,16.9,1111122 
DISL,ioos:station:DISL:PPTA:1,2015-12-06T01:00:00Z,30.2791,-87.5561,16.45,1111122 
DISL,ioos:station:DISL:PPTA:1,2015-12-06T01:30:00Z,30.2791,-87.5561,16.08,1111122 
DISL,ioos:station:DISL:PPTA:1,2015-12-06T02:00:00Z,30.2791,-87.5561,16.08,1111122 
DISL,ioos:station:DISL:PPTA:1,2015-12-06T02:30:00Z,30.2791,-87.5561,16.05,1111122 
DISL,ioos:station:DISL:PPTA:1,2015-12-06T03:00:00Z,30.2791,-87.5561,16.02,1111122 
DISL,ioos:station:DISL:PPTA:1,2015-12-06T03:30:00Z,30.2791,-87.5561,15.98,1111122 
DISL,ioos:station:DISL:PPTA:1,2015-12-06T04:00:00Z,30.2791,-87.5561,15.78,1111122 
DISL,ioos:station:DISL:PPTA:1,2015-12-06T04:30:00Z,30.2791,-87.5561,15.78,1111122 
DISL,ioos:station:DISL:PPTA:1,2015-12-06T05:00:00Z,30.2791,-87.5561,15.41,1111122 
DISL,ioos:station:DISL:PPTA:1,2015-12-06T05:30:00Z,30.2791,-87.5561,15.13,1111122 
DISL,ioos:station:DISL:PPTA:1,2015-12-06T06:00:00Z,30.2791,-87.5561,15.0,1111122 
DISL,ioos:station:DISL:PPTA:1,2015-12-06T06:30:00Z,30.2791,-87.5561,14.89,1111122 
DISL,ioos:station:DISL:PPTA:1,2015-12-06T07:00:00Z,30.2791,-87.5561,14.7,1111122 
DISL,ioos:station:DISL:PPTA:1,2015-12-06T07:30:00Z,30.2791,-87.5561,14.49,1111122 
DISL,ioos:station:DISL:PPTA:1,2015-12-06T08:00:00Z,30.2791,-87.5561,14.29,1111122 
DISL,ioos:station:DISL:PPTA:1,2015-12-06T08:30:00Z,30.2791,-87.5561,13.91,1111122 
DISL,ioos:station:DISL:PPTA:1,2015-12-06T09:00:00Z,30.2791,-87.5561,13.78,1111122 
DISL,ioos:station:DISL:PPTA:1,2015-12-06T09:30:00Z,30.2791,-87.5561,13.64,1111122 
DISL,ioos:station:DISL:PPTA:1,2015-12-06T10:00:00Z,30.2791,-87.5561,13.44,1111122 
DISL,ioos:station:DISL:PPTA:1,2015-12-06T10:30:00Z,30.2791,-87.5561,13.2,1111122 
DISL,ioos:station:DISL:PPTA:1,2015-12-06T11:00:00Z,30.2791,-87.5561,13.41,1111122 
DISL,ioos:station:DISL:PPTA:1,2015-12-06T11:30:00Z,30.2791,-87.5561,13.27,1111122 
DISL,ioos:station:DISL:PPTA:1,2015-12-06T12:00:00Z,30.2791,-87.5561,12.93,1111122 
DISL,ioos:station:DISL:PPTA:1,2015-12-06T12:30:00Z,30.2791,-87.5561,12.28,1111122 
DISL,ioos:station:DISL:PPTA:1,2015-12-06T13:00:00Z,30.2791,-87.5561,12.49,1111122 
DISL,ioos:station:DISL:PPTA:1,2015-12-06T13:30:00Z,30.2791,-87.5561,12.6,1111122 
DISL,ioos:station:DISL:PPTA:1,2015-12-06T14:00:00Z,30.2791,-87.5561,12.9,1111122 
DISL,ioos:station:DISL:PPTA:1,2015-12-06T14:30:00Z,30.2791,-87.5561,13.06,1111122 
DISL,ioos:station:DISL:PPTA:1,2015-12-06T15:00:00Z,30.2791,-87.5561,13.71,1111122 
DISL,ioos:station:DISL:PPTA:1,2015-12-06T15:30:00Z,30.2791,-87.5561,14.07,1111122 
DISL,ioos:station:DISL:PPTA:1,2015-12-06T16:00:00Z,30.2791,-87.5561,14.71,1111122 
DISL,ioos:station:DISL:PPTA:1,2015-12-06T16:30:00Z,30.2791,-87.5561,15.12,1111122 
DISL,ioos:station:DISL:PPTA:1,2015-12-06T17:00:00Z,30.2791,-87.5561,15.48,1111122 
DISL,ioos:station:DISL:PPTA:1,2015-12-06T17:30:00Z,30.2791,-87.5561,15.34,1111122 
DISL,ioos:station:DISL:PPTA:1,2015-12-06T18:00:00Z,30.2791,-87.5561,15.17,1111122 
DISL,ioos:station:DISL:PPTA:1,2015-12-06T18:30:00Z,30.2791,-87.5561,15.79,1111122 
DISL,ioos:station:DISL:PPTA:1,2015-12-06T19:00:00Z,30.2791,-87.5561,16.03,1111122 
DISL,ioos:station:DISL:PPTA:1,2015-12-06T19:30:00Z,30.2791,-87.5561,16.67,1111122 
DISL,ioos:station:DISL:PPTA:1,2015-12-06T20:00:00Z,30.2791,-87.5561,17.16,1111122 
DISL,ioos:station:DISL:PPTA:1,2015-12-06T20:30:00Z,30.2791,-87.5561,17.54,1111122 
DISL,ioos:station:DISL:PPTA:1,2015-12-06T21:00:00Z,30.2791,-87.5561,18.05,1111122 
DISL,ioos:station:DISL:PPTA:1,2015-12-06T21:30:00Z,30.2791,-87.5561,18.36,1111122 
DISL,ioos:station:DISL:PPTA:1,2015-12-06T22:00:00Z,30.2791,-87.5561,17.61,1111122 
DISL,ioos:station:DISL:PPTA:1,2015-12-06T22:30:00Z,30.2791,-87.5561,17.74,1111122 
DISL,ioos:station:DISL:PPTA:1,2015-12-06T23:00:00Z,30.2791,-87.5561,17.31,1111122 
DISL,ioos:station:DISL:PPTA:1,2015-12-06T23:30:00Z,30.2791,-87.5561,17.34,1111122 
DISL,ioos:station:DISL:PPTA:1,2015-12-07T00:00:00Z,30.2791,-87.5561,16.56,1111122 